Location: San Martino di Castrozza
(46.2667°N, 11.8000°E)
Time: 02:05:52
(UTC+00:00)

Cosmos 1818 - Pass Details

Date: 23 April 2021
Orbit: 772 x 802 km, 65.0° (Epoch: 15 May)

Event Time Altitude Azimuth Distance (km) Brightness Sun altitude
Rises 03:24:13 0° 320° (NW) 3,320 6.7 -8.4°
Reaches altitude 10° 03:26:43 10° 315° (NW) 2,385 5.9 -8.0°
Maximum altitude 03:32:00 50° 241° (WSW) 1,009 3.8 -7.2°
Drops below altitude 10° 03:37:15 10° 167° (SSE) 2,362 5.9 -6.4°
Sets 03:39:42 0° 162° (SSE) 3,285 6.7 -6.0°
